Location: *
(46.0770°N, 1.6444°E)
Time: 05:59:31
(UTC+00:00)

Cosmos 2056 Rocket - Pass Details

Date: 16 September 2019
Orbit: 743 x 800 km, 74.0° (Epoch: 22 October)

Event Time Altitude Azimuth Distance (km) Brightness Sun altitude
Rises 19:18:15 0° 166° (SSE) 3,291 6.5 -13.5°
Reaches altitude 10° 19:20:58 10° 154° (SSE) 2,368 5.6 -13.9°
Maximum altitude 19:25:23 27° 99° (E) 1,516 4.4 -14.7°
Drops below altitude 10° 19:29:50 10° 44° (NE) 2,379 5.8 -15.4°
Sets 19:32:33 0° 32° (NNE) 3,308 6.7 -15.8°
